Home   Weather   Nuussuaq   Past weeks
Flag for Greenland

Past Weather in Nuussuaq, Greenland — Yesterday and Last 2 Weeks

Now
31 °F

Chilly.


Feels Like: 17 °F
Forecast: N/A
Wind: 26 mph from Southeast

Location: Edderfugle Oeer

Current Time: Oct 23, 2019 at 9:58:52 pm

Latest Report: Oct 23, 2019 at 8:00 pm


Visibility: N/A

Pressure: 30.37 "Hg

Humidity: 89%

Dew Point: 28 °F

Location of NuussuaqLocation

Past Weather in Nuussuaq — Graph

°F

Nuussuaq Temperature Yesterday

Maximum temperature yesterday: 27 °F (at 8:00 pm)
Minimum temperature yesterday: 24 °F (at 12:00 am)
Average temperature yesterday: 25 °F

High & Low Weather Summary for the Past Weeks

 TemperatureHumidityPressure
High36 °F (Oct 11, 10:00 am)99% (Oct 19, 8:00 am)30.37 "Hg (Oct 19, 8:00 am)
Low22 °F (Oct 21, 6:00 pm)41% (Oct 22, 12:00 pm)29.59 "Hg (Oct 11, 4:00 pm)
Average30 °F75%30.01 "Hg
* Reported Oct 8 8:00 pm — Oct 23 8:00 pm, Nuussuaq. Weather by CustomWeather, © 2019

Note: Actual official high and low records may vary slightly from our data, if they occured in-between our weather recording intervals... More about our weather records

Advertising

Nuussuaq Weather History for the Previous 24 Hours

Scroll right to see more
 ConditionsComfort  
Time TempWeatherWind HumidityBarometerVisibility
8:00 pm
Wed, Oct 23
31 °FChilly.26 mph89%30.37 "HgN/A
7:00 pm32 °FChilly.30 mph87%30.37 "HgN/A
6:00 pm32 °FChilly.35 mph83%30.35 "HgN/A
5:00 pm32 °FChilly.33 mph81%30.34 "HgN/A
4:00 pm31 °FChilly.37 mph83%30.33 "HgN/A
3:00 pm31 °FChilly.36 mph89%30.33 "HgN/A
2:00 pm30 °FChilly.35 mph87%30.31 "HgN/A
1:00 pm30 °FChilly.33 mph86%30.32 "HgN/A
12:00 pm30 °FChilly.33 mph76%30.32 "HgN/A
11:00 am29 °FChilly.30 mph77%30.32 "HgN/A
10:00 am28 °FChilly.30 mph83%30.32 "HgN/A
9:00 am29 °FChilly.29 mph72%30.32 "HgN/A
8:00 am29 °FChilly.29 mph66%30.30 "HgN/A
7:00 am30 °FChilly.28 mph50%30.29 "HgN/A
6:00 am31 °FChilly.24 mph41%30.29 "HgN/A
5:00 am29 °FChilly.21 mph53%30.29 "HgN/A
4:00 am29 °FChilly.21 mph48%30.29 "HgN/A
3:00 am28 °FChilly.17 mph48%30.29 "HgN/A
2:00 am28 °FChilly.17 mph54%30.29 "HgN/A
1:00 am28 °FChilly.16 mph50%30.29 "HgN/A
12:00 am27 °FChilly.15 mph53%30.29 "HgN/A
11:00 pm
Tue, Oct 22
26 °FChilly.20 mph47%30.28 "HgN/A
10:00 pm26 °FChilly.18 mph48%30.28 "HgN/A
9:00 pm26 °FChilly.17 mph49%30.27 "HgN/A
Weather by CustomWeather, © 2019

See weather overview